| time (UTC) | temp F | wind direction | speed MPH | gust MPH | rain 1hr in | rain 24hr in | rain mn in | humidity % | barometer mb |
| 20260502164033 | 73 | 313 | 5.0 | 17.0 | 0.00 | 2.38 | 0.01 | 46 | 1021.2 |
| 20260502163535 | 72 | 323 | 4.0 | 17.0 | 0.00 | 2.38 | 0.01 | 48 | 1021.1 |
| 20260502163031 | 72 | 315 | 6.0 | 17.0 | 0.00 | 2.38 | 0.01 | 49 | 1021.0 |
| 20260502162533 | 72 | 340 | 6.0 | 13.0 | 0.00 | 2.38 | 0.01 | 50 | 1021.1 |
| 20260502162030 | 71 | 86 | 3.0 | 15.0 | 0.00 | 2.38 | 0.01 | 51 | 1021.1 |
| 20260502161529 | 71 | 344 | 4.0 | 15.0 | 0.00 | 2.38 | 0.01 | 52 | 1021.1 |
| 20260502161028 | 70 | 344 | 6.0 | 13.0 | 0.00 | 2.38 | 0.01 | 51 | 1021.1 |
| 20260502160527 | 71 | 10 | 5.0 | 12.0 | 0.00 | 2.38 | 0.01 | 53 | 1021.1 |
| 20260502152027 | 67 | 338 | 5.0 | 13.0 | 0.00 | 2.44 | 0.01 | 60 | 1020.9 |
| 20260502151521 | 67 | 54 | 4.0 | 13.0 | 0.00 | 2.44 | 0.01 | 60 | 1021.0 |
| 20260502151020 | 67 | 36 | 6.0 | 14.0 | 0.00 | 2.44 | 0.01 | 60 | 1020.9 |
| 20260502150519 | 67 | 5 | 6.0 | 14.0 | 0.00 | 2.44 | 0.01 | 61 | 1021.0 |
| 20260502130553 | 57 | 351 | 5.0 | 10.0 | 0.00 | 2.66 | 0.00 | 86 | 1019.9 |
| 20260502123546 | 54 | 355 | 2.0 | 8.0 | 0.00 | 2.69 | 0.00 | 90 | 1019.4 |
| 20260502123046 | 54 | 333 | 3.0 | 8.0 | 0.00 | 2.69 | 0.00 | 91 | 1019.3 |
| 20260502122545 | 53 | 348 | 2.0 | 6.0 | 0.00 | 2.69 | 0.00 | 91 | 1019.3 |
| 20260502122044 | 53 | 5 | 3.0 | 9.0 | 0.00 | 2.69 | 0.00 | 91 | 1019.1 |
| 20260502121555 | 53 | 355 | 4.0 | 9.0 | 0.00 | 2.69 | 0.00 | 91 | 1019.1 |
| 20260502121043 | 52 | 342 | 3.0 | 6.0 | 0.00 | 2.69 | 0.00 | 90 | 1019.1 |
| 20260502120542 | 52 | 333 | 2.0 | 6.0 | 0.00 | 2.69 | 0.00 | 90 | 1019.0 |
| 20260502115544 | 52 | 331 | 2.0 | 6.0 | 0.00 | 2.69 | 0.00 | 90 | 1018.8 |
| 20260502115040 | 52 | 324 | 3.0 | 5.0 | 0.00 | 2.69 | 0.00 | 89 | 1018.8 |
| 20260502114540 | 52 | 343 | 1.0 | 4.0 | 0.00 | 2.69 | 0.00 | 89 | 1018.7 |
| 20260502114040 | 52 | 343 | 2.0 | 4.0 | 0.00 | 2.69 | 0.00 | 89 | 1018.8 |
| 20260502113539 | 52 | 348 | 1.0 | 4.0 | 0.00 | 2.69 | 0.00 | 89 | 1018.8 |
| 20260502113039 | 52 | 348 | 2.0 | 4.0 | 0.00 | 2.69 | 0.00 | 89 | 1018.8 |
| 20260502112538 | 53 | 5 | 1.0 | 4.0 | 0.00 | 2.69 | 0.00 | 89 | 1018.9 |
| 20260502112037 | 53 | 9 | 2.0 | 8.0 | 0.00 | 2.69 | 0.00 | 89 | 1018.7 |
| 20260502111537 | 53 | 5 | 2.0 | 8.0 | 0.00 | 2.69 | 0.00 | 89 | 1018.6 |
| 20260502111035 | 53 | 350 | 3.0 | 6.0 | 0.00 | 2.69 | 0.00 | 89 | 1018.5 |
| 20260502110533 | 53 | 19 | 1.0 | 6.0 | 0.00 | 2.69 | 0.00 | 88 | 1018.4 |
| 20260502110033 | 53 | 302 | 1.0 | 6.0 | 0.00 | 2.69 | 0.00 | 88 | 1018.3 |
| 20260502105533 | 53 | 346 | 2.0 | 6.0 | 0.00 | 2.73 | 0.00 | 88 | 1018.2 |
| 20260502105032 | 53 | 355 | 2.0 | 6.0 | 0.00 | 2.73 | 0.00 | 88 | 1018.2 |
| 20260502104540 | 53 | 323 | 3.0 | 9.0 | 0.00 | 2.73 | 0.00 | 88 | 1018.2 |
| 20260502104030 | 53 | 360 | 3.0 | 9.0 | 0.00 | 2.73 | 0.00 | 88 | 1018.1 |
| 20260502103530 | 53 | 355 | 2.0 | 6.0 | 0.00 | 2.73 | 0.00 | 88 | 1018.1 |
| 20260502103033 | 53 | 350 | 2.0 | 5.0 | 0.00 | 2.73 | 0.00 | 88 | 1018.1 |
| 20260502102528 | 53 | 12 | 2.0 | 5.0 | 0.00 | 2.73 | 0.00 | 87 | 1018.0 |
| 20260502102028 | 53 | 9 | 1.0 | 8.0 | 0.00 | 2.73 | 0.00 | 87 | 1017.9 |
| 20260502101527 | 53 | 82 | 3.0 | 8.0 | 0.00 | 2.73 | 0.00 | 87 | 1017.8 |
| 20260502101026 | 54 | 355 | 3.0 | 6.0 | 0.00 | 2.73 | 0.00 | 87 | 1017.7 |
| 20260502100526 | 54 | 355 | 1.0 | 4.0 | 0.00 | 2.73 | 0.00 | 86 | 1017.7 |
| 20260502091518 | 55 | 18 | 0.0 | 6.0 | 0.00 | 3.15 | 0.00 | 86 | 1016.6 |
| 20260502091017 | 55 | 23 | 2.0 | 8.0 | 0.00 | 3.15 | 0.00 | 86 | 1016.6 |
| 20260502090517 | 55 | 10 | 3.0 | 8.0 | 0.00 | 3.15 | 0.00 | 86 | 1016.6 |
| 20260502071511 | 55 | 360 | 4.0 | 10.0 | 0.00 | 3.53 | 0.00 | 90 | 1016.4 |
| 20260502071010 | 55 | 13 | 3.0 | 9.0 | 0.00 | 3.53 | 0.00 | 90 | 1016.4 |
| 20260502070509 | 55 | 355 | 4.0 | 9.0 | 0.00 | 3.53 | 0.00 | 91 | 1016.4 |
| 20260502070016 | 55 | 46 | 3.0 | 8.0 | 0.00 | 3.53 | 0.00 | 91 | 1016.5 |
| 20260502065510 | 55 | 337 | 2.0 | 10.0 | 0.00 | 3.62 | 0.00 | 91 | 1016.5 |
| 20260502065012 | 55 | 333 | 3.0 | 10.0 | 0.00 | 3.62 | 0.00 | 91 | 1016.5 |
| 20260502064524 | 55 | 360 | 3.0 | 8.0 | 0.00 | 3.62 | 0.00 | 91 | 1016.5 |
| 20260502064007 | 55 | 5 | 2.0 | 11.0 | 0.00 | 3.62 | 0.00 | 91 | 1016.6 |
| 20260502063510 | 55 | 360 | 3.0 | 11.0 | 0.00 | 3.62 | 0.00 | 91 | 1016.5 |
| 20260502063010 | 55 | 37 | 2.0 | 13.0 | 0.00 | 3.62 | 0.00 | 92 | 1016.4 |
| 20260502062505 | 55 | 360 | 5.0 | 13.0 | 0.00 | 3.62 | 0.00 | 91 | 1016.4 |
| 20260502062009 | 55 | 332 | 4.0 | 12.0 | 0.00 | 3.62 | 0.00 | 92 | 1016.3 |
| 20260502061504 | 55 | 337 | 4.0 | 12.0 | 0.00 | 3.62 | 0.00 | 92 | 1016.2 |
| 20260502061003 | 55 | 360 | 5.0 | 10.0 | 0.00 | 3.62 | 0.00 | 92 | 1016.2 |
| 20260502060503 | 55 | 5 | 2.0 | 13.0 | 0.00 | 3.62 | 0.00 | 92 | 1016.2 |
| 20260502060005 | 55 | 20 | 4.0 | 13.0 | 0.00 | 3.62 | 0.00 | 92 | 1016.2 |
| 20260502055503 | 55 | 324 | 5.0 | 13.0 | 0.00 | 3.67 | 0.00 | 92 | 1016.2 |
| 20260502055003 | 55 | 347 | 5.0 | 12.0 | 0.00 | 3.67 | 0.00 | 92 | 1016.1 |
| 20260502054502 | 55 | 5 | 3.0 | 10.0 | 0.00 | 3.67 | 0.00 | 92 | 1016.2 |
| 20260502054004 | 55 | 20 | 3.0 | 8.0 | 0.00 | 3.67 | 0.00 | 93 | 1016.2 |
| 20260502053501 | 55 | 30 | 3.0 | 14.0 | 0.00 | 3.67 | 0.00 | 93 | 1016.2 |
| 20260502053108 | 55 | 355 | 3.0 | 14.0 | 0.00 | 3.67 | 0.00 | 93 | 1016.2 |
| 20260502052559 | 55 | 327 | 5.0 | 12.0 | 0.00 | 3.67 | 0.00 | 93 | 1016.2 |
| 20260502052102 | 55 | 28 | 3.0 | 12.0 | 0.00 | 3.67 | 0.00 | 92 | 1016.0 |
| 20260502051603 | 55 | 36 | 4.0 | 13.0 | 0.00 | 3.67 | 0.00 | 93 | 1016.0 |
| 20260502051057 | 55 | 55 | 4.0 | 13.0 | 0.00 | 3.67 | 0.00 | 93 | 1016.1 |
| 20260502050559 | 55 | 5 | 6.0 | 12.0 | 0.00 | 3.67 | 0.00 | 93 | 1015.9 |
| 20260502050059 | 55 | 28 | 5.0 | 14.0 | 0.00 | 3.67 | 0.00 | 93 | 1015.8 |
| 20260502045555 | 55 | 5 | 5.0 | 14.0 | 0.00 | 3.80 | 3.67 | 93 | 1015.8 |
| 20260502045057 | 55 | 43 | 2.0 | 12.0 | 0.00 | 3.80 | 3.67 | 93 | 1015.8 |
| 20260502044557 | 55 | 11 | 3.0 | 12.0 | 0.00 | 3.80 | 3.67 | 93 | 1015.7 |
| 20260502044054 | 55 | 17 | 4.0 | 13.0 | 0.00 | 3.80 | 3.67 | 93 | 1015.7 |
| 20260502043554 | 55 | 349 | 4.0 | 13.0 | 0.00 | 3.80 | 3.67 | 93 | 1015.6 |
| 20260502043100 | 55 | 34 | 4.0 | 12.0 | 0.00 | 3.80 | 3.67 | 93 | 1015.8 |
| 20260502042553 | 55 | 5 | 4.0 | 12.0 | 0.00 | 3.80 | 3.67 | 93 | 1016.0 |
| 20260502042053 | 55 | 360 | 5.0 | 12.0 | 0.00 | 3.80 | 3.67 | 93 | 1016.1 |
| 20260502041553 | 55 | 14 | 3.0 | 12.0 | 0.00 | 3.80 | 3.67 | 93 | 1016.1 |
| 20260502041055 | 55 | 335 | 3.0 | 12.0 | 0.00 | 3.80 | 3.67 | 93 | 1016.0 |
| 20260502040550 | 55 | 13 | 5.0 | 12.0 | 0.00 | 3.80 | 3.67 | 93 | 1015.9 |
| 20260502040051 | 55 | 19 | 5.0 | 14.0 | 0.00 | 3.80 | 3.67 | 93 | 1015.8 |
| 20260502035552 | 55 | 65 | 4.0 | 14.0 | 0.00 | 3.80 | 3.67 | 93 | 1015.8 |
| 20260502035050 | 55 | 360 | 5.0 | 14.0 | 0.00 | 3.80 | 3.67 | 93 | 1015.8 |
| 20260502034550 | 55 | 5 | 4.0 | 13.0 | 0.00 | 3.80 | 3.67 | 93 | 1016.0 |
| 20260502034049 | 55 | 5 | 5.0 | 11.0 | 0.00 | 3.80 | 3.67 | 93 | 1015.9 |
| 20260502033548 | 55 | 336 | 4.0 | 9.0 | 0.00 | 3.80 | 3.67 | 93 | 1015.8 |
| 20260502033053 | 55 | 321 | 4.0 | 11.0 | 0.00 | 3.80 | 3.67 | 94 | 1015.7 |
| 20260502032545 | 55 | 42 | 4.0 | 12.0 | 0.00 | 3.80 | 3.67 | 94 | 1015.4 |
| 20260502032046 | 55 | 36 | 5.0 | 13.0 | 0.00 | 3.80 | 3.67 | 94 | 1015.4 |
| 20260502031546 | 55 | 342 | 6.0 | 16.0 | 0.00 | 3.80 | 3.67 | 94 | 1015.4 |
| 20260502031044 | 56 | 321 | 6.0 | 16.0 | 0.00 | 3.80 | 3.67 | 94 | 1015.3 |
| 20260502030541 | 56 | 321 | 6.0 | 13.0 | 0.00 | 3.80 | 3.67 | 94 | 1015.1 |
| 20260502030042 | 56 | 23 | 6.0 | 13.0 | 0.00 | 3.80 | 3.67 | 94 | 1015.0 |
| 20260502025541 | 56 | 360 | 5.0 | 14.0 | 0.01 | 3.80 | 3.67 | 94 | 1014.8 |
| 20260502025039 | 56 | 346 | 3.0 | 16.0 | 0.01 | 3.80 | 3.67 | 94 | 1014.5 |
| 20260502024538 | 56 | 20 | 4.0 | 16.0 | 0.02 | 3.80 | 3.67 | 94 | 1014.2 |
| 20260502024038 | 56 | 355 | 6.0 | 14.0 | 0.03 | 3.80 | 3.67 | 94 | 1014.2 |
| 20260502023537 | 56 | 15 | 6.0 | 14.0 | 0.03 | 3.80 | 3.67 | 93 | 1014.3 |
| 20260502023036 | 56 | 26 | 5.0 | 13.0 | 0.04 | 3.80 | 3.67 | 93 | 1014.1 |
| 20260502022535 | 56 | 342 | 7.0 | 15.0 | 0.04 | 3.80 | 3.67 | 94 | 1014.1 |
| 20260502022033 | 57 | 332 | 8.0 | 15.0 | 0.04 | 3.80 | 3.67 | 93 | 1014.2 |
| 20260502021534 | 57 | 19 | 5.0 | 11.0 | 0.05 | 3.80 | 3.67 | 94 | 1014.0 |
| 20260502021032 | 57 | 20 | 3.0 | 11.0 | 0.05 | 3.80 | 3.67 | 94 | 1013.6 |
| 20260502020556 | 57 | 343 | 6.0 | 13.0 | 0.05 | 3.80 | 3.67 | 94 | 1013.8 |
| 20260502020031 | 57 | 355 | 6.0 | 13.0 | 0.06 | 3.80 | 3.67 | 94 | 1014.0 |
| 20260502015530 | 57 | 348 | 4.0 | 14.0 | 0.06 | 3.79 | 3.66 | 94 | 1013.9 |
| 20260502015031 | 58 | 355 | 6.0 | 13.0 | 0.08 | 3.79 | 3.66 | 94 | 1013.7 |
| 20260502014532 | 58 | 355 | 4.0 | 13.0 | 0.08 | 3.78 | 3.65 | 94 | 1013.3 |
| 20260502014028 | 58 | 321 | 4.0 | 12.0 | 0.07 | 3.77 | 3.64 | 94 | 1013.6 |
| 20260502013528 | 58 | 355 | 4.0 | 12.0 | 0.07 | 3.77 | 3.64 | 94 | 1013.6 |
| 20260502013027 | 58 | 347 | 5.0 | 12.0 | 0.07 | 3.76 | 3.63 | 94 | 1013.5 |
| 20260502012527 | 58 | 355 | 4.0 | 9.0 | 0.07 | 3.76 | 3.63 | 94 | 1013.4 |
| 20260502012027 | 58 | 324 | 3.0 | 11.0 | 0.08 | 3.76 | 3.63 | 94 | 1013.3 |
| 20260502011547 | 58 | 9 | 6.0 | 11.0 | 0.08 | 3.75 | 3.62 | 94 | 1013.1 |
| 20260502011027 | 58 | 337 | 5.0 | 11.0 | 0.09 | 3.75 | 3.62 | 94 | 1013.0 |
| 20260502010526 | 58 | 355 | 3.0 | 12.0 | 0.10 | 3.75 | 3.62 | 94 | 1012.8 |
| 20260502010026 | 58 | 360 | 5.0 | 13.0 | 0.10 | 3.74 | 3.61 | 94 | 1012.7 |
| 20260502005525 | 58 | 22 | 3.0 | 16.0 | 0.10 | 3.73 | 3.60 | 94 | 1012.8 |
| 20260502005024 | 58 | 18 | 7.0 | 16.0 | 0.09 | 3.71 | 3.58 | 94 | 1013.2 |
| 20260502004533 | 58 | 360 | 4.0 | 10.0 | 0.10 | 3.70 | 3.57 | 94 | 1013.6 |
| 20260502004022 | 58 | 304 | 3.0 | 11.0 | 0.11 | 3.70 | 3.57 | 94 | 1013.2 |
| 20260502003524 | 58 | 348 | 3.0 | 12.0 | 0.12 | 3.70 | 3.57 | 94 | 1012.7 |
| 20260502003025 | 58 | 332 | 5.0 | 12.0 | 0.11 | 3.69 | 3.56 | 94 | 1012.3 |
| 20260502002521 | 58 | 355 | 2.0 | 12.0 | 0.11 | 3.69 | 3.56 | 94 | 1011.9 |
| 20260502002023 | 58 | 360 | 6.0 | 12.0 | 0.10 | 3.68 | 3.55 | 94 | 1011.9 |
| 20260502001520 | 59 | 350 | 4.0 | 11.0 | 0.09 | 3.67 | 3.54 | 94 | 1012.1 |
| 20260502001023 | 59 | 323 | 4.0 | 12.0 | 0.09 | 3.66 | 3.53 | 94 | 1012.3 |
| 20260502000519 | 59 | 5 | 4.0 | 12.0 | 0.10 | 3.65 | 3.52 | 93 | 1012.1 |
| 20260502000019 | 59 | 22 | 4.0 | 11.0 | 0.11 | 3.64 | 3.51 | 93 | 1012.2 |
| 20260501235523 | 59 | 18 | 4.0 | 11.0 | 0.15 | 3.63 | 3.50 | 93 | 1012.3 |
| 20260501235018 | 59 | 280 | 5.0 | 11.0 | 0.15 | 3.61 | 3.48 | 93 | 1011.9 |
| 20260501234517 | 59 | 19 | 4.0 | 12.0 | 0.16 | 3.60 | 3.47 | 93 | 1012.6 |
| 20260501234016 | 59 | 316 | 3.0 | 12.0 | 0.15 | 3.59 | 3.46 | 93 | 1013.0 |
| 20260501233516 | 59 | 350 | 3.0 | 10.0 | 0.14 | 3.58 | 3.45 | 93 | 1012.5 |
| 20260501233016 | 59 | 26 | 4.0 | 13.0 | 0.14 | 3.58 | 3.45 | 93 | 1011.9 |
| 20260501232516 | 59 | 336 | 4.0 | 13.0 | 0.14 | 3.58 | 3.45 | 93 | 1010.8 |
| 20260501232018 | 59 | 52 | 3.0 | 12.0 | 0.14 | 3.58 | 3.45 | 93 | 1010.5 |
| 20260501231525 | 59 | 355 | 3.0 | 13.0 | 0.14 | 3.58 | 3.45 | 93 | 1010.5 |
| 20260501231014 | 59 | 89 | 6.0 | 13.0 | 0.13 | 3.57 | 3.44 | 93 | 1010.3 |
| 20260501230514 | 59 | 93 | 2.0 | 12.0 | 0.11 | 3.55 | 3.42 | 93 | 1011.3 |
| 20260501230013 | 59 | 19 | 6.0 | 14.0 | 0.09 | 3.53 | 3.40 | 93 | 1011.1 |
| 20260501225513 | 60 | 66 | 4.0 | 14.0 | 0.04 | 3.48 | 3.35 | 93 | 1011.3 |
| 20260501225014 | 60 | 5 | 5.0 | 14.0 | 0.02 | 3.46 | 3.33 | 93 | 1011.8 |
| 20260501224510 | 60 | 27 | 4.0 | 14.0 | 0.00 | 3.44 | 3.31 | 93 | 1010.9 |
| 20260501224010 | 60 | 95 | 4.0 | 12.0 | 0.00 | 3.44 | 3.31 | 94 | 1010.6 |
| 20260501223509 | 60 | 24 | 3.0 | 15.0 | 0.00 | 3.44 | 3.31 | 94 | 1010.5 |
| 20260501223008 | 60 | 60 | 5.0 | 15.0 | 0.00 | 3.44 | 3.31 | 94 | 1010.2 |
| 20260501222509 | 60 | 78 | 3.0 | 10.0 | 0.01 | 3.44 | 3.31 | 94 | 1010.3 |
| 20260501222007 | 61 | 355 | 3.0 | 13.0 | 0.03 | 3.44 | 3.31 | 94 | 1010.3 |
| 20260501221507 | 61 | 38 | 4.0 | 13.0 | 0.07 | 3.44 | 3.31 | 94 | 1010.1 |
| 20260501221006 | 61 | 57 | 2.0 | 9.0 | 0.10 | 3.44 | 3.31 | 94 | 1010.1 |
| 20260501220507 | 61 | 25 | 4.0 | 12.0 | 0.11 | 3.44 | 3.31 | 94 | 1010.2 |
| 20260501220107 | 61 | 355 | 4.0 | 13.0 | 0.12 | 3.44 | 3.31 | 94 | 1010.5 |
| 20260501215510 | 61 | 340 | 6.0 | 14.0 | 0.12 | 3.44 | 3.31 | 94 | 1010.5 |
| 20260501215008 | 61 | 331 | 7.0 | 14.0 | 0.13 | 3.44 | 3.31 | 94 | 1010.7 |
| 20260501214508 | 61 | 360 | 5.0 | 11.0 | 0.13 | 3.44 | 3.31 | 94 | 1010.8 |
| 20260501214006 | 61 | 19 | 4.0 | 12.0 | 0.14 | 3.44 | 3.31 | 94 | 1011.0 |
| 20260501213502 | 61 | 355 | 4.0 | 12.0 | 0.14 | 3.44 | 3.31 | 94 | 1010.7 |
| 20260501213001 | 61 | 19 | 4.0 | 10.0 | 0.16 | 3.44 | 3.31 | 94 | 1011.1 |
| 20260501212501 | 61 | 348 | 2.0 | 9.0 | 0.17 | 3.43 | 3.30 | 94 | 1011.1 |
| 20260501212001 | 61 | 305 | 3.0 | 9.0 | 0.20 | 3.40 | 3.27 | 94 | 1011.2 |
| 20260501211501 | 61 | 9 | 2.0 | 5.0 | 0.22 | 3.37 | 3.24 | 94 | 1011.0 |
| 20260501211100 | 61 | 330 | 1.0 | 5.0 | 0.20 | 3.34 | 3.21 | 95 | 1011.0 |
| 20260501210600 | 61 | 36 | 2.0 | 10.0 | 0.23 | 3.33 | 3.20 | 94 | 1011.1 |
| 20260501210101 | 61 | 18 | 1.0 | 12.0 | 0.28 | 3.32 | 3.19 | 94 | 1010.8 |
| 20260501205600 | 61 | 360 | 4.0 | 15.0 | 0.28 | 3.32 | 3.19 | 94 | 1010.0 |
| 20260501205100 | 61 | 345 | 6.0 | 15.0 | 0.28 | 3.31 | 3.18 | 94 | 1009.3 |
| 20260501204559 | 61 | 34 | 4.0 | 13.0 | 0.28 | 3.31 | 3.18 | 94 | 1009.6 |
| 20260501204101 | 61 | 5 | 5.0 | 13.0 | 0.28 | 3.30 | 3.17 | 94 | 1009.9 |
| 20260501203600 | 61 | 75 | 3.0 | 13.0 | 0.32 | 3.30 | 3.17 | 94 | 1009.6 |
| 20260501203058 | 61 | 346 | 6.0 | 13.0 | 0.32 | 3.29 | 3.16 | 94 | 1009.7 |
| 20260501202557 | 61 | 319 | 3.0 | 9.0 | 0.31 | 3.27 | 3.14 | 94 | 1009.7 |
| 20260501202057 | 61 | 99 | 4.0 | 9.0 | 0.28 | 3.21 | 3.08 | 94 | 1009.6 |
| 20260501201556 | 62 | 16 | 1.0 | 6.0 | 0.27 | 3.15 | 3.02 | 94 | 1010.3 |
| 20260501201056 | 62 | 70 | 1.0 | 6.0 | 0.33 | 3.14 | 3.01 | 94 | 1010.0 |
| 20260501200555 | 62 | 17 | 3.0 | 8.0 | 0.28 | 3.09 | 2.96 | 94 | 1009.7 |
| 20260501200056 | 62 | 9 | 2.0 | 8.0 | 0.28 | 3.04 | 2.91 | 94 | 1010.0 |
| 20260501195555 | 62 | 51 | 2.0 | 6.0 | 0.36 | 3.02 | 2.89 | 94 | 1009.4 |
| 20260501195055 | 62 | 347 | 3.0 | 6.0 | 0.37 | 3.02 | 2.89 | 94 | 1009.1 |
| 20260501194555 | 62 | 351 | 2.0 | 6.0 | 0.38 | 3.02 | 2.89 | 94 | 1009.1 |
| 20260501194054 | 62 | 36 | 3.0 | 9.0 | 0.37 | 3.01 | 2.88 | 94 | 1009.1 |
| 20260501193554 | 62 | 60 | 1.0 | 9.0 | 0.33 | 2.97 | 2.84 | 94 | 1009.2 |
| 20260501193053 | 62 | 350 | 4.0 | 9.0 | 0.33 | 2.97 | 2.84 | 94 | 1009.4 |
| 20260501192554 | 62 | 27 | 3.0 | 9.0 | 0.33 | 2.96 | 2.83 | 94 | 1009.1 |
| 20260501192054 | 62 | 103 | 2.0 | 6.0 | 0.33 | 2.90 | 2.77 | 94 | 1009.1 |
| 20260501191553 | 62 | 5 | 3.0 | 9.0 | 0.60 | 2.88 | 2.75 | 94 | 1009.6 |
| 20260501191054 | 62 | 109 | 3.0 | 12.0 | 0.56 | 2.81 | 2.68 | 94 | 1009.8 |
| 20260501190552 | 62 | 28 | 2.0 | 12.0 | 0.56 | 2.80 | 2.67 | 94 | 1009.8 |
| 20260501190111 | 62 | 14 | 3.0 | 8.0 | 0.49 | 2.72 | 2.59 | 94 | 1009.4 |
| 20260501185552 | 62 | 5 | 2.0 | 11.0 | 0.45 | 2.66 | 2.52 | 94 | 1010.2 |
| 20260501185052 | 62 | 36 | 3.0 | 11.0 | 0.53 | 2.65 | 2.52 | 94 | 1009.9 |
| 20260501184553 | 62 | 105 | 3.0 | 9.0 | 0.63 | 2.64 | 2.50 | 94 | 1009.1 |
| 20260501184052 | 62 | 76 | 3.0 | 9.0 | 0.76 | 2.64 | 2.50 | 94 | 1009.6 |
| 20260501183552 | 62 | 105 | 3.0 | 10.0 | 0.85 | 2.64 | 2.50 | 94 | 1009.7 |
| 20260501183053 | 62 | 59 | 3.0 | 10.0 | 0.87 | 2.64 | 2.50 | 94 | 1009.1 |
| 20260501182551 | 61 | 85 | 4.0 | 10.0 | 0.87 | 2.62 | 2.49 | 94 | 1008.9 |
| 20260501182049 | 62 | 55 | 3.0 | 10.0 | 0.95 | 2.54 | 2.42 | 94 | 1008.7 |
| 20260501181549 | 62 | 79 | 2.0 | 6.0 | 0.72 | 2.25 | 2.13 | 94 | 1010.0 |
| 20260501181049 | 62 | 117 | 2.0 | 11.0 | 0.71 | 2.24 | 2.11 | 94 | 1010.6 |
| 20260501180549 | 62 | 65 | 3.0 | 12.0 | 0.71 | 2.24 | 2.11 | 94 | 1009.0 |
| 20260501180048 | 62 | 50 | 4.0 | 12.0 | 0.71 | 2.23 | 2.10 | 94 | 1008.5 |
| 20260501175549 | 62 | 26 | 2.0 | 8.0 | 0.68 | 2.20 | 2.06 | 94 | 1009.0 |
| 20260501175047 | 62 | 91 | 3.0 | 9.0 | 0.59 | 2.11 | 1.98 | 94 | 1009.3 |
| 20260501174549 | 62 | 45 | 2.0 | 7.0 | 0.47 | 1.99 | 1.86 | 94 | 1009.5 |
| 20260501174047 | 62 | 96 | 2.0 | 8.0 | 0.34 | 1.86 | 1.73 | 94 | 1010.4 |
| 20260501173547 | 62 | 5 | 3.0 | 10.0 | 0.28 | 1.79 | 1.66 | 94 | 1010.7 |
| 20260501173046 | 62 | 355 | 1.0 | 11.0 | 0.26 | 1.77 | 1.64 | 94 | 1010.5 |
| 20260501172547 | 62 | 22 | 3.0 | 11.0 | 0.23 | 1.73 | 1.60 | 94 | 1010.1 |
| 20260501172045 | 62 | 27 | 2.0 | 12.0 | 0.09 | 1.58 | 1.45 | 94 | 1010.1 |
| 20260501171545 | 62 | 317 | 3.0 | 12.0 | 0.05 | 1.54 | 1.41 | 94 | 1011.0 |